Location: La Silve
(44.2414°N, 5.8889°E)
Time: 05:53:34
(UTC+00:00)

Meteor 1-11 Rocket - Pass Details

Date: 01 December 2020
Orbit: 831 x 915 km, 81.2° (Epoch: 27 January)

Event Time Altitude Azimuth Distance (km) Brightness Sun altitude
Rises 17:33:39 0° 356° (N) 3,475 6.8 -16.5°
Reaches altitude 10° 17:36:17 10° 5° (N) 2,546 6.0 -16.9°
Maximum altitude 17:41:38 37° 72° (ENE) 1,367 4.2 -17.9°
Drops below altitude 10° 17:47:01 10° 138° (SE) 2,578 5.9 -18.8°
Sets 17:49:41 0° 147° (SSE) 3,524 6.7 -19.3°
